Погода в Паланкарае

Индонезия     2°00′37″S   113°44′31″E
темп.,
°C
ветер,
м/с
пор.,
м/с
влажн.,
%
обл.,
%
осадки,
мм/ч
давл.,
гПа
погр.,
м
2 марта, вт
вт201:00+24юз118183 0.0 101024
04:00+24ссз118289 0.0 100924
07:00+25зсз018091 0.0 101194
10:00+34ссв12490 0.0 10111349
13:00+33зсз115036 0.0 10071626
16:00+32зюз1262100 0.0 1006345
19:00+27ю267790 0.0 1008195
22:00+24ююз129678 1.6 101170
3 марта, ср
ср301:00+24св119889 6.4 101054
04:00+23с2698100 13.1 1010170
07:00+23с1499100 27.4 1012177
10:00+23сз12100100 36.0 1013183
13:00+23ююз1399100 44.8 1011224
16:00+23ю1397100 0.9 1010300
19:00+22св1298100 0.9 101275
22:00+22в1397100 0.0 1012170
4 марта, чт
чт401:00+21ссв1298100 0.0 101196
04:00+21всв129999 0.0 101198
07:00+23всв1392100 0.0 1012181
10:00+30всв2359100 0.0 1012842
13:00+35св114259 0.0 10091733
16:00+32юв115257 0.0 10081509
19:00+26юв127572 0.0 101024
22:00+24юв1186100 0.0 101224
5 марта, пт
пт501:00+23юв119199 0.0 101031
04:00+22з009368 0.0 101023
07:00+25ссв118484 0.0 1013168
10:00+33св115496 0.0 10121070
13:00+33сз015873 0.9 10081257
16:00+29юв128269 3.5 1007198
19:00+25ююв118577 3.5 101024
22:00+24с008986 0.2 101124
6 марта, сб
сб601:00+23ссз119691 2.3 101023
04:00+23ссв019796 0.9 100923
07:00+24в129587 2.2 1011160
10:00+32св135886 0.4 10111099
13:00+34ссв234976 0.4 10071712
16:00+33всв125261 0.0 10071690
19:00+28ююв117063 0.0 100824
22:00+24юв119666 3.1 101025